Regional Weather Roundup
Issued by NWS

Home | Current Version | Previous Version | Text Only | Print | Product List | Glossary On
Versions: 1 2 3 4 5 6 7 8 9 10 11 12 13 14 15 16 17 18 19 20 21 22 23 24 25 26 27 28 29 30 31 32 33 34 35 36 37 38 39 40 41 42 43 44 45 46 47 48 49 50
000
ASCA44 KEWX 230720
RWRMX

LATIN AMERICA AND CARIBBEAN REGIONAL WEATHER ROUNDUP
NATIONAL WEATHER SERVICE AUSTIN/SAN ANTONIO TX
100 AM CST TUE JAN 23 2018

NOTE: "FAIR" INDICATED FEW OR NO CLOUDS BELOW 12,000 FEET WITH NO
SIGNIFICANT WEATHER AND/OR OBSTRUCTIONS TO VISIBILITY.

BAJA CALIFORNIA

CITY           SKY/WX    TMP DP  RH WIND       PRES   REMARKS
MEXICALI       CLEAR     46  14  27 NW7       30.18S WCI  43
S.J. DEL CABO    N/A    N/A N/A N/A MISG        N/A
TIJUANA        CLEAR     50  37  62 CALM      30.20S

NORTHWESTERN MEXICO

CITY           SKY/WX    TMP DP  RH WIND       PRES   REMARKS
HERMOSILLO     CLEAR     50  25  37 S5        30.02S WCI  48

NORTHEASTERN MEXICO

CITY           SKY/WX    TMP DP  RH WIND       PRES   REMARKS
MONCLOVA         N/A    N/A N/A N/A MISG        N/A
MONTERREY      CLEAR     45  30  57 CALM      30.19F
REYNOSA          N/A    N/A N/A N/A MISG        N/A
SALTILLO       CLEAR     41  28  60 CALM      30.25S
CD. VICTORIA     N/A    N/A N/A N/A MISG        N/A

WESTERN MEXICO

CITY           SKY/WX    TMP DP  RH WIND       PRES   REMARKS
AGUASCALIENTES CLOUDY    54  23  30 NE8       30.19F
COLIMA           N/A    N/A N/A N/A MISG        N/A
GUADALAJARA    MOCLDY    55  32  41 W3        30.12F
MAZATLAN       MOCLDY    55  54  94 CALM      29.88F
P. VALLARTA    CLOUDY    64  64 100 CALM      29.87
URUAPAN          N/A    N/A N/A N/A MISG        N/A

CENTRAL MEXICO

CITY           SKY/WX    TMP DP  RH WIND       PRES   REMARKS
CUERNAVACA       N/A    N/A N/A N/A MISG        N/A
MEXICO CITY    PTCLDY    55  41  58 SE6       30.30F
MORELIA        PTCLDY    48  36  61 CALM      30.18F
POZA RICA        N/A    N/A N/A N/A MISG        N/A
S. LUIS POTOSI MOCLDY    48  37  66 CALM      30.22
TOLUCA         CLEAR     45  34  65 CALM      30.32F

SOUTHERN MEXICO

CITY           SKY/WX    TMP DP  RH WIND       PRES   REMARKS
ACAPULCO       CLEAR     75  73  94 CALM      29.83S
B. DE HUATULCO   N/A    N/A N/A N/A MISG        N/A
P. ESCONDIDO     N/A    N/A N/A N/A MISG        N/A
VERACRUZ         N/A    N/A N/A N/A MISG        N/A

YUCATAN PENINSULA

CITY           SKY/WX    TMP DP  RH WIND       PRES   REMARKS
CAMPECHE       CLOUDY    75  73  94 CALM      29.93
CANCUN         PTCLDY    73  73 100 NE3       29.99S
CHETUMAL         N/A    N/A N/A N/A MISG        N/A
CD. DEL CARMEN   N/A    N/A N/A N/A MISG        N/A
COZUMEL        CLEAR     72  70  94 CALM      29.97S
MERIDA         MOCLDY    75  72  88 N5        29.99R
MINATITLAN       N/A    N/A N/A N/A MISG        N/A
TAPACHULA      CLEAR     72  70  94 CALM      29.84S

CENTRAL AMERICA

CITY           SKY/WX    TMP DP  RH WIND       PRES   REMARKS
MANAGUA        MOSUNNY   75  70  83 E5        29.80F

CARIBBEAN

CITY           SKY/WX    TMP DP  RH WIND       PRES   REMARKS
KINGSTON       PTCLDY    77  70  78 N5        29.89F
NASSAU         PTCLDY    75  70  83 NE6       30.06F
SAN JUAN       PTCLDY    75  72  88 CALM      29.96F
SANTO DOMINGO  PTCLDY    73  72  94 NE5       29.94F
ST. CROIX      CLEAR     73  72  94 NE6       29.94F
ST. THOMAS     CLEAR     73  72  94 E5        29.95F

$$





USA.gov is the U.S. government's official web portal to all federal, state and local government web resources and services.